Regional Weather Roundup
Issued by NWS Kansas City/Pleasant Hill, MO

Home | Current Version | Previous Version | Text Only | Print | Product List | Glossary On
Versions: 1 2 3 4 5 6 7 8 9 10 11 12 13 14 15 16 17 18 19 20 21 22 23 24 25 26 27 28
000
ASUS43 KEAX 220510
RWREAX

WEATHER ROUNDUP FOR EASTERN KANSAS AND NORTHWEST MISSOURI
NATIONAL WEATHER SERVICE KANSAS CITY/PLEASANT HILL MO
1100 PM CST SUN JAN 21 2018

KSZ040-057-103>105-MOZ028-029-037-043-220600-
...KANSAS CITY METROPOLITAN AREA...

CITY           SKY/WX    TMP DP  RH WIND       PRES   REMARKS
K.C. INTL      CLOUDY    51  49  92 S10       29.54F
K.C. DOWNTOWN  CLOUDY    59  53  80 SW5       29.53F
LEES SUMMIT    CLOUDY    57  55  93 S13       29.55F
OLATHE - IXD   CLOUDY    55  54  96 SE7       29.53F
OLATHE - OJC   CLOUDY    54  54 100 S5        29.53F
LAWRENCE       CLOUDY    46  46 100 CALM      29.53F FOG

$$

MOZ001>008-011>017-020>025-030>033-038>040-044>046-053-054-220600-
...NORTHERN AND CENTRAL MISSOURI...

CITY           SKY/WX    TMP DP  RH WIND       PRES   REMARKS
ST. JOSEPH     CLOUDY    49  49 100 NE5       29.53F FOG
MOSBY          CLOUDY    54  52  94 E3        29.55F
WARRENSBURG    CLOUDY    55  54  94 SE10      29.57F
WHITEMAN AFB   CLOUDY    57  55  92 S8        29.53F
CLINTON        CLOUDY    57  55  94 S13       29.57F
SEDALIA        CLOUDY    59  58  96 SE13      29.59F
WARSAW         NOT AVBL
CHILLICOTHE      N/A     54  52  93 SE6       29.58F
KIRKSVILLE     LGT RAIN  56  55  97 S18G26    29.64S

$$

MOZ041-047>049-056>058-063>065-088>090-097-220600-
...EASTERN AND SOUTHERN MISSOURI...

CITY           SKY/WX    TMP DP  RH WIND       PRES   REMARKS
ST. LOUIS INTL CLOUDY    57  55  93 SE9       29.77F
SPIRIT OF STL  CLOUDY    60  56  86 SE6       29.74F
COLUMBIA       RAIN      57  32  38 S14       29.69F
JEFFERSON CITY HVY RAIN  58  55  90 SW7       29.70F FOG
ROLLA          LGT RAIN  58  56  93 S13       29.70F
OSAGE BEACH    HVY RAIN  59  56  89 SW13G23   29.68F
SPRINGFIELD    CLOUDY    57  56  96 S9        29.63F
BRANSON        LGT RAIN  55  55 100 S12G22    29.64F
JOPLIN         CLOUDY    57  56  96 S10       29.60R
WEST PLAINS    CLOUDY    60  55  83 S16G25    29.73F

$$

IAZ060-094-KSZ022-034>040-054-083-096-NEZ052-066-093-220600-
...KANSAS...SOUTHEAST NEBRASKA AND IOWA...

CITY           SKY/WX    TMP DP  RH WIND       PRES   REMARKS
TOPEKA         CLOUDY    47  42  83 NW17G23   29.54F
MANHATTAN      PTCLDY    41  37  86 N5        29.54F
EMPORIA        CLOUDY    41  35  79 N7        29.54F
CHANUTE        CLOUDY    58  51  78 S13       29.55S
WICHITA        PTCLDY    34  32  92 W9        29.61R WCI  27
OMAHA          LGT RAIN  38  36  92 N12       29.63F FOG     WCI  30
LINCOLN        CLOUDY    37  36  96 N12       29.63S WCI  29
FALLS CITY     FOG       44  43  96 NW8       29.54F VSB 1
LAMONI         LGT RAIN  49  48  97 E7        29.56F FOG
DES MOINES     LGT RAIN  39  38  96 N12       29.64F FOG     WCI  32

$$





USA.gov is the U.S. government's official web portal to all federal, state and local government web resources and services.